Record,Date/Time,10,Tamb(K),Rh(%),Pres(mb),Tir(K),Rain,Az(deg),El(deg),TkBB(K), Ch  22.234, Ch  23.034, Ch  23.834, Ch  26.234, Ch  30.000, Ch  51.248, Ch  52.280, Ch  53.848, Ch  54.940, Ch  56.660, Ch  57.288, Ch  58.800, Ch 
Record,Date/Time,40,Tamb(K),Rh(%),Pres(mb),Tir(K),Rain
Record,Date/Time,50,Az(deg),El(deg),TkBB(K), Ch  22.000, Ch  22.234, Ch  22.500, Ch  23.000, Ch  23.034, Ch  23.500, Ch  23.834, Ch  24.000, Ch  24.500, Ch  25.000, Ch  25.500, Ch  26.000, Ch  26.234, Ch  26.500, Ch  27.000, Ch  27.500, Ch  28.000, Ch  28.500, Ch  29.000, Ch  29.500, Ch  30.000, Ch  51.248, Ch  51.760, Ch  52.280, Ch  52.804, Ch  53.336, Ch  53.848, Ch  54.400, Ch  54.940, Ch  55.500, Ch  56.020, Ch  56.660, Ch  57.288, Ch  57.964, Ch  58.800, Ch 
Record,Date/Time,80,ID,SNR,Tamb(K),Rh(%),Pres(mb),Tir(K),Rain,Az(deg),El(deg),TkBB(K), Ch  22.234, Ch  23.034, Ch  23.834, Ch  26.234, Ch  30.000, Ch  51.248, Ch  52.280, Ch  53.848, Ch  54.940, Ch  56.660, Ch  57.288, Ch  58.800, Ch 
     1,06/07/18 00:00:37,41, 288.3120,  73.1400,1013.3880, 216.8600,1
     2,06/07/18 00:01:14,51,  0.00, 19.80,300.703, 86.389, 89.699, 89.303, 86.331,, 80.707, 77.431, 74.642, 68.828, 63.392, 58.822, 54.742,,, 52.017,, 49.049,, 48.047,, 48.505,219.084,238.022,256.592,272.222,281.013,284.622,284.974,285.003,285.272,285.107,285.463,283.660,285.315,286.131,
     3,06/07/18 00:01:33,51,  0.00, 90.00,300.738, 33.808, 35.405, 34.813, 34.041,, 31.564, 29.664, 29.245, 27.268, 24.724, 23.186, 21.580,,, 20.729,, 19.452,, 19.724,, 19.858,111.222,129.307,153.782,185.580,221.747,254.979,275.831,282.757,284.038,283.218,283.775,280.859,283.258,283.307,
     4,06/07/18 00:01:51,51,  0.00,160.20,300.731, 79.902, 83.036, 82.504, 79.900,, 74.573, 70.388, 68.450, 63.263, 57.891, 53.716, 49.757,,, 47.336,, 44.690,, 43.729,, 44.259,209.539,229.126,249.724,268.278,279.312,284.168,284.855,285.691,285.094,284.461,285.181,283.587,285.357,285.614,
     5,06/07/18 00:02:15,41, 288.3550,  73.4700,1013.5560, 216.4200,1
     6,06/07/18 00:02:52,51,  0.00, 19.80,300.742, 86.404, 89.583, 89.744, 86.108,, 80.189, 77.156, 74.845, 68.661, 62.653, 59.240, 54.558,,, 51.753,, 48.866,, 48.660,, 48.994,219.581,237.762,256.844,272.228,281.198,284.080,284.467,285.227,285.839,284.328,285.147,284.400,285.792,286.505,
     7,06/07/18 00:03:11,51,  0.00, 90.00,300.759, 34.278, 35.671, 35.282, 34.412,, 31.856, 30.529, 29.562, 27.204, 25.100, 23.558, 21.202,,, 20.505,, 19.566,, 20.080,, 19.833,111.784,129.503,153.835,185.518,221.683,254.508,275.668,282.925,284.370,282.547,283.399,281.109,283.610,283.806,
     8,06/07/18 00:03:29,51,  0.00,160.20,300.766, 80.018, 83.732, 83.152, 80.055,, 74.282, 71.109, 69.128, 63.223, 58.213, 53.835, 49.957,,, 47.355,, 44.227,, 44.355,, 44.865,209.819,228.968,249.949,268.426,279.243,283.890,285.131,285.387,285.451,284.697,285.096,284.137,285.801,286.155,
     9,06/07/18 00:03:54,41, 288.2690,  73.8700,1013.5800, 216.3000,1
    10,06/07/18 00:04:31,51,  0.00, 19.80,300.755, 86.813, 90.309, 89.749, 86.841,, 81.172, 77.482, 74.979, 68.976, 63.370, 59.833, 55.068,,, 52.226,, 49.698,, 48.072,, 49.306,220.212,237.892,256.539,272.614,281.047,284.180,285.155,284.967,285.050,285.307,285.565,283.764,285.444,285.611,
    11,06/07/18 00:04:50,51,  0.00, 90.00,300.746, 34.277, 35.474, 35.417, 34.771,, 31.702, 29.865, 29.263, 27.271, 25.035, 23.463, 21.637,,, 20.794,, 19.765,, 19.981,, 19.923,111.706,129.177,153.777,185.788,221.945,254.855,275.591,283.068,284.350,283.226,283.750,280.425,283.512,283.913,
    12,06/07/18 00:05:09,51,  0.00,160.20,300.768, 79.926, 83.885, 82.615, 80.089,, 74.498, 70.333, 68.466, 62.883, 58.124, 54.223, 50.249,,, 47.315,, 44.642,, 43.762,, 44.667,210.543,229.506,250.053,269.019,279.334,284.044,285.317,285.303,285.206,284.490,285.353,283.695,285.528,285.528,
    13,06/07/18 00:05:33,41, 288.3550,  73.4300,1013.6100, 216.2500,1
    14,06/07/18 00:06:10,51,  0.00, 19.80,300.738, 86.475, 90.079, 89.376, 86.173,, 81.049, 76.965, 75.030, 69.318, 63.078, 58.980, 55.025,,, 52.129,, 49.261,, 48.337,, 49.291,219.595,237.897,256.785,272.428,280.955,284.457,285.109,284.837,285.553,284.639,285.175,283.510,285.713,285.299,
    15,06/07/18 00:06:29,51,  0.00, 90.00,300.750, 33.567, 35.135, 35.089, 34.039,, 31.758, 29.888, 29.146, 26.742, 24.663, 22.884, 21.066,,, 20.616,, 19.661,, 20.248,, 20.113,111.584,129.029,154.021,185.850,221.956,255.041,275.962,282.882,284.456,283.032,283.545,280.690,283.642,283.458,
    16,06/07/18 00:06:48,51,  0.00,160.20,300.745, 79.749, 83.506, 82.752, 79.840,, 74.367, 70.501, 69.049, 62.963, 58.062, 53.882, 49.808,,, 47.238,, 44.374,, 44.298,, 44.636,209.972,228.883,250.340,268.755,279.599,284.349,285.201,285.405,285.415,284.677,285.212,283.351,285.870,285.596,
    17,06/07/18 00:07:11,41, 288.2020,  73.1300,1013.5460, 216.4000,1
    18,06/07/18 00:07:48,51,  0.00, 19.80,300.741, 86.188, 89.644, 89.904, 86.408,, 80.979, 77.243, 75.225, 69.085, 63.610, 59.379, 54.576,,, 51.837,, 49.315,, 47.957,, 48.990,219.883,237.628,256.952,272.019,280.850,284.191,285.222,285.331,285.482,284.872,285.139,284.549,285.712,286.243,
    19,06/07/18 00:08:07,51,  0.00, 90.00,300.755, 33.818, 34.971, 35.484, 34.016,, 31.667, 30.003, 29.367, 27.547, 24.699, 23.423, 21.242,,, 20.735,, 19.451,, 19.488,, 19.492,111.479,129.294,154.415,185.970,221.516,254.596,275.973,283.083,284.944,283.400,283.431,281.059,283.164,284.248,
    20,06/07/18 00:08:26,51,  0.00,160.20,300.726, 79.132, 83.146, 83.060, 79.964,, 74.310, 70.574, 69.212, 63.130, 58.297, 54.391, 50.194,,, 47.282,, 44.426,, 43.779,, 44.589,210.361,229.262,250.154,268.374,279.627,284.370,284.918,285.423,285.544,285.081,285.005,283.894,285.212,286.394,
    21,06/07/18 00:08:50,41, 288.1590,  73.8500,1013.7180, 216.6100,1
    22,06/07/18 00:09:27,51,  0.00, 19.80,300.725, 86.392, 89.867, 89.421, 86.759,, 81.307, 76.877, 75.176, 69.058, 62.625, 59.627, 54.023,,, 52.007,, 49.277,, 47.512,, 49.074,219.441,237.267,256.848,272.171,281.020,284.073,284.655,285.151,285.071,284.223,285.709,284.118,285.820,286.810,
    23,06/07/18 00:09:45,51,  0.00, 90.00,300.726, 34.141, 35.339, 35.050, 34.604,, 32.103, 29.978, 29.424, 27.098, 24.492, 23.369, 21.549,,, 21.080,, 19.574,, 19.451,, 19.776,111.441,128.828,154.210,185.898,221.520,254.609,275.911,282.731,284.482,282.794,284.257,281.188,283.737,283.994,
    24,06/07/18 00:10:04,51,  0.00,160.20,300.727, 79.839, 83.447, 83.445, 80.749,, 75.535, 71.020, 69.102, 63.373, 58.201, 54.453, 50.069,,, 47.792,, 44.631,, 43.387,, 45.005,209.772,228.401,249.843,268.341,279.399,283.771,284.854,285.313,285.479,284.459,285.528,284.163,285.567,286.254,
    25,06/07/18 00:10:28,41, 288.1590,  73.3600,1013.5440, 216.5900,1
    26,06/07/18 00:11:05,51,  0.00, 19.80,300.690, 87.514, 90.082, 90.633, 87.469,, 81.229, 77.458, 75.726, 69.316, 63.820, 60.018, 55.700,,, 52.035,, 49.509,, 48.185,, 49.358,219.601,237.439,256.973,272.137,281.005,284.635,284.918,284.732,285.319,284.631,285.208,283.979,285.401,285.379,
    27,06/07/18 00:11:24,51,  0.00, 90.00,300.731, 34.606, 35.536, 35.478, 34.596,, 31.782, 30.104, 29.617, 27.650, 25.090, 23.509, 21.882,,, 20.609,, 19.708,, 19.794,, 19.374,111.496,128.779,153.958,185.748,222.107,254.751,275.714,282.792,284.883,283.275,283.783,280.904,283.354,282.873,
    28,06/07/18 00:11:42,51,  0.00,160.20,300.727, 80.450, 83.407, 83.612, 80.200,, 74.740, 70.845, 69.209, 63.691, 58.452, 54.674, 50.377,,, 47.324,, 44.921,, 43.973,, 44.275,209.887,228.865,250.140,268.533,279.546,284.099,285.011,285.051,285.316,284.245,285.143,283.796,285.088,285.190,
    29,06/07/18 00:12:06,41, 288.1050,  74.3900,1013.6700, 216.9800,1
    30,06/07/18 00:12:43,51,  0.00, 19.80,300.692, 86.553, 89.643, 90.148, 87.579,, 81.161, 77.636, 75.731, 69.331, 63.163, 59.574, 54.704,,, 52.392,, 49.340,, 48.158,, 48.740,220.023,237.922,256.377,272.145,281.082,284.152,284.958,284.792,285.967,284.805,285.389,283.889,285.301,285.696,
    31,06/07/18 00:13:02,51,  0.00, 90.00,300.683, 34.227, 35.666, 35.605, 34.542,, 32.002, 30.541, 29.626, 27.266, 25.052, 23.680, 21.814,,, 21.266,, 19.993,, 20.389,, 20.013,111.491,129.254,153.414,185.748,221.945,254.711,275.385,282.676,284.774,283.311,283.668,280.441,282.803,283.635,
    32,06/07/18 00:13:20,51,  0.00,160.20,300.717, 79.784, 83.011, 82.705, 80.294,, 74.604, 70.365, 69.041, 63.170, 58.396, 54.210, 50.120,,, 47.648,, 45.005,, 44.098,, 44.672,210.045,229.372,249.617,268.165,279.328,284.015,285.034,285.137,285.764,285.046,285.213,283.831,284.854,285.300,
    33,06/07/18 00:13:44,41, 288.1050,  73.8300,1013.6760, 216.3700,1
    34,06/07/18 00:14:21,51,  0.00, 19.80,300.662, 86.873, 90.078, 90.459, 86.627,, 80.663, 77.610, 75.261, 69.092, 63.079, 59.582, 54.571,,, 52.036,, 49.304,, 48.141,, 49.342,219.712,237.650,256.252,272.835,281.219,284.336,285.126,284.951,285.852,285.139,285.689,283.942,285.552,285.979,
    35,06/07/18 00:14:40,51,  0.00, 90.00,300.692, 34.510, 35.515, 36.014, 34.339,, 31.477, 30.509, 29.316, 27.607, 25.119, 23.340, 21.632,,, 21.164,, 19.876,, 19.935,, 19.480,111.581,128.755,153.904,186.171,222.012,255.109,275.817,282.687,284.265,283.230,283.658,280.832,283.548,283.812,
    36,06/07/18 00:14:59,51,  0.00,160.20,300.715, 80.059, 83.323, 83.111, 80.034,, 74.484, 70.503, 68.616, 63.131, 57.895, 54.193, 49.977,,, 47.012,, 44.561,, 43.721,, 44.331,209.927,228.765,250.074,268.632,279.765,284.429,285.077,284.995,285.378,284.764,285.300,284.094,285.648,285.797,
    37,06/07/18 00:15:23,41, 287.9640,  74.4900,1013.7040, 216.3800,1
    38,06/07/18 00:16:00,51,  0.00, 19.80,300.685, 87.218, 90.351, 90.350, 87.215,, 81.183, 77.699, 75.404, 69.780, 63.142, 59.788, 55.239,,, 52.146,, 49.379,, 47.789,, 48.645,219.641,237.670,256.718,272.177,280.815,284.265,284.935,285.053,285.160,285.124,285.017,283.721,285.577,286.599,
    39,06/07/18 00:16:19,51,  0.00, 90.00,300.667, 34.103, 35.343, 35.216, 34.462,, 31.279, 29.962, 29.200, 27.341, 24.851, 22.943, 21.500,,, 20.644,, 19.417,, 19.320,, 19.862,110.933,128.621,153.865,186.007,221.281,254.536,275.903,282.938,284.360,283.565,283.686,280.810,283.864,284.228,
    40,06/07/18 00:16:37,51,  0.00,160.20,300.663, 79.479, 82.974, 82.613, 79.811,, 74.256, 70.340, 68.466, 63.116, 57.488, 54.003, 49.885,,, 46.672,, 44.181,, 43.231,, 43.755,209.577,228.827,249.661,268.449,279.624,284.102,285.529,285.083,284.960,284.860,285.082,283.513,285.364,286.020,
    41,06/07/18 00:17:01,41, 288.2410,  73.5400,1013.5100, 215.7100,1
    42,06/07/18 00:17:38,51,  0.00, 19.80,300.647, 86.700, 90.444, 90.382, 86.460,, 81.538, 77.293, 75.457, 69.338, 63.260, 59.685, 54.436,,, 51.986,, 49.194,, 47.962,, 48.867,220.250,238.076,257.177,272.331,280.915,284.062,284.568,284.976,285.311,285.038,285.744,284.170,285.876,285.731,
    43,06/07/18 00:17:57,51,  0.00, 90.00,300.648, 33.941, 35.657, 35.909, 34.230,, 31.735, 29.610, 29.123, 26.883, 24.758, 23.573, 21.275,,, 20.635,, 19.302,, 19.218,, 19.084,112.013,129.087,154.128,186.006,222.120,254.765,275.393,282.381,284.223,283.691,283.808,281.129,283.794,283.287,
    44,06/07/18 00:18:16,51,  0.00,160.20,300.682, 78.925, 82.783, 82.525, 79.338,, 74.175, 70.337, 68.022, 62.564, 57.303, 54.111, 49.432,,, 46.911,, 44.395,, 43.377,, 44.153,210.359,228.882,250.339,268.910,279.925,283.784,284.874,284.787,285.392,284.751,285.639,284.037,285.673,285.601,
    45,06/07/18 00:18:40,41, 288.3980,  74.2600,1013.7200, 215.5000,1
    46,06/07/18 00:19:17,51,  0.00, 19.80,300.653, 87.608, 90.810, 90.592, 87.466,, 81.693, 78.058, 75.499, 69.523, 63.714, 60.063, 55.378,,, 52.927,, 49.583,, 47.905,, 48.985,219.787,237.544,256.469,272.358,281.002,283.970,284.540,285.670,285.097,285.150,285.643,284.359,285.601,285.737,
    47,06/07/18 00:19:36,51,  0.00, 90.00,300.663, 34.209, 35.187, 35.151, 34.093,, 31.630, 29.850, 29.475, 27.601, 24.705, 23.532, 21.402,,, 20.713,, 19.568,, 19.415,, 20.021,111.501,128.719,153.550,185.934,222.197,254.360,276.171,283.347,284.732,283.400,284.353,281.553,283.595,283.449,
    48,06/07/18 00:19:54,51,  0.00,160.20,300.693, 79.184, 82.844, 82.179, 79.409,, 74.458, 70.320, 68.715, 62.695, 57.565, 53.718, 49.582,,, 47.005,, 44.540,, 43.387,, 44.887,209.465,228.773,249.705,268.903,279.945,284.141,285.139,285.687,285.861,285.026,285.333,284.607,285.427,285.969,
    49,06/07/18 00:20:17,41, 288.3660,  73.6900,1013.5880, 216.2100,1
    50,06/07/18 00:20:54,51,  0.00, 19.80,300.677, 87.175, 90.370, 90.607, 87.478,, 81.220, 77.702, 75.959, 69.299, 63.411, 59.586, 54.896,,, 52.215,, 49.220,, 48.474,, 49.127,219.546,237.534,256.503,272.078,281.116,284.540,284.720,285.167,285.532,284.345,285.138,284.331,285.939,285.234,
    51,06/07/18 00:21:13,51,  0.00, 90.00,300.691, 33.987, 35.351, 35.899, 34.064,, 31.411, 29.868, 29.524, 27.259, 24.763, 23.144, 21.285,,, 20.464,, 19.266,, 19.758,, 20.039,111.472,128.951,153.592,185.730,221.899,254.743,275.727,283.203,284.407,282.631,283.942,281.184,283.539,283.129,
    52,06/07/18 00:21:32,51,  0.00,160.20,300.707, 79.555, 82.654, 82.485, 79.271,, 73.935, 70.173, 68.754, 62.791, 57.266, 53.297, 49.675,,, 46.569,, 44.111,, 43.582,, 44.532,209.540,228.534,249.665,268.088,279.997,284.237,284.787,285.262,285.771,284.112,285.325,283.882,285.728,285.275,
    53,06/07/18 00:21:56,41, 288.2020,  74.2200,1013.4720, 216.5500,1
    54,06/07/18 00:22:33,51,  0.00, 19.80,300.680, 87.499, 90.688, 90.380, 87.563,, 81.845, 77.491, 75.642, 69.494, 63.319, 59.721, 54.826,,, 52.034,, 49.580,, 47.993,, 49.714,219.895,237.869,256.567,273.012,281.600,284.324,284.875,285.368,285.054,284.819,285.079,284.119,285.105,285.856,
    55,06/07/18 00:22:52,51,  0.00, 90.00,300.707, 34.055, 35.745, 35.232, 34.367,, 32.048, 30.059, 29.584, 27.074, 24.543, 22.943, 21.518,,, 20.810,, 19.863,, 19.582,, 19.963,111.495,129.476,153.804,186.160,222.199,254.661,275.816,283.102,284.228,283.084,283.732,281.294,283.188,283.268,
    56,06/07/18 00:23:11,51,  0.00,160.20,300.718, 78.890, 82.700, 82.160, 79.553,, 74.261, 70.121, 68.489, 62.291, 57.091, 53.344, 49.665,,, 46.677,, 44.298,, 43.297,, 44.778,209.823,229.346,249.957,268.752,279.942,283.657,285.244,285.228,285.178,284.901,285.120,284.181,285.332,285.494,
    57,06/07/18 00:23:35,41, 288.0620,  74.2800,1013.5900, 215.5100,1
    58,06/07/18 00:24:12,51,  0.00, 19.80,300.692, 87.884, 91.151, 91.316, 87.971,, 81.963, 78.363, 76.125, 70.118, 64.368, 60.264, 55.461,,, 52.863,, 49.895,, 48.561,, 49.532,220.321,237.612,256.576,272.540,281.217,284.761,284.509,285.319,285.546,284.666,285.315,284.414,285.644,286.020,
    59,06/07/18 00:24:31,51,  0.00, 90.00,300.707, 33.809, 35.280, 35.290, 34.252,, 31.363, 29.601, 29.198, 27.000, 24.718, 23.169, 21.762,,, 20.882,, 19.885,, 19.888,, 19.659,111.571,128.984,153.527,185.895,222.147,255.120,275.302,282.877,284.574,283.313,283.780,281.372,283.700,283.586,
    60,06/07/18 00:24:50,51,  0.00,160.20,300.669, 78.899, 82.226, 81.962, 78.979,, 73.683, 70.251, 68.213, 62.282, 57.290, 53.166, 49.132,,, 46.732,, 44.271,, 43.649,, 44.488,209.929,228.973,250.056,268.500,279.850,284.353,284.892,285.227,285.774,285.046,285.353,283.841,285.649,285.421,
    61,06/07/18 00:25:14,41, 288.0620,  74.0400,1013.4780, 215.9400,1
    62,06/07/18 00:25:51,51,  0.00, 19.80,300.663, 88.080, 91.182, 91.244, 88.059,, 81.804, 78.252, 76.325, 70.354, 63.908, 60.251, 55.575,,, 52.753,, 50.000,, 48.591,, 49.669,220.198,238.367,256.314,272.023,281.149,284.296,284.196,284.742,285.787,285.032,285.560,284.178,285.569,285.583,
    63,06/07/18 00:26:10,51,  0.00, 90.00,300.692, 34.230, 35.690, 35.786, 34.093,, 31.621, 30.214, 29.709, 27.775, 25.074, 23.956, 21.756,,, 20.990,, 19.815,, 19.904,, 19.450,111.755,129.440,153.901,185.733,222.241,254.544,275.065,282.623,285.009,283.625,283.709,280.884,283.880,283.909,
    64,06/07/18 00:26:29,51,  0.00,160.20,300.686, 79.219, 82.470, 82.224, 79.277,, 73.475, 70.456, 68.259, 62.862, 57.575, 53.647, 49.864,,, 46.958,, 44.342,, 43.536,, 43.935,209.926,229.154,249.930,268.220,279.592,283.886,284.620,285.232,285.578,284.655,285.023,283.208,285.400,285.386,
    65,06/07/18 00:26:53,41, 287.9480,  74.3200,1013.4760, 216.5600,1
    66,06/07/18 00:27:30,51,  0.00, 19.80,300.651, 88.002, 90.839, 90.930, 87.982,, 82.029, 78.130, 76.104, 70.032, 63.872, 59.929, 55.167,,, 52.946,, 49.351,, 48.549,, 49.767,219.828,237.439,256.793,272.253,280.790,284.252,284.911,284.857,285.831,284.540,285.290,284.477,285.901,285.760,
    67,06/07/18 00:27:49,51,  0.00, 90.00,300.634, 34.693, 35.598, 35.281, 34.343,, 32.078, 29.824, 29.656, 27.604, 25.044, 23.173, 21.463,,, 20.929,, 19.204,, 19.865,, 19.724,111.590,129.199,154.088,185.830,222.167,254.952,275.751,282.937,284.484,283.058,283.950,280.985,283.993,284.065,
    68,06/07/18 00:28:07,51,  0.00,160.20,300.634, 79.269, 82.415, 81.675, 78.995,, 74.141, 69.897, 68.230, 62.969, 57.126, 54.068, 49.759,,, 47.030,, 43.959,, 43.717,, 44.483,209.799,228.791,250.023,268.111,279.755,284.504,285.053,285.055,285.672,284.344,285.389,283.906,285.216,285.852,
    69,06/07/18 00:28:32,41, 287.7800,  74.5800,1013.6380, 216.7500,1
    70,06/07/18 00:29:09,51,  0.00, 19.80,300.614, 86.846, 90.843, 90.459, 87.339,, 81.676, 77.922, 75.545, 69.404, 63.723, 59.953, 54.819,,, 52.455,, 49.707,, 48.477,, 49.257,219.940,238.163,256.405,271.559,281.050,283.977,284.960,285.125,285.284,284.563,284.990,284.227,285.366,285.606,
    71,06/07/18 00:29:28,51,  0.00, 90.00,300.595, 34.767, 36.174, 36.164, 34.727,, 32.426, 30.713, 29.683, 27.906, 25.815, 23.651, 21.668,,, 21.300,, 19.618,, 20.236,, 20.239,111.833,129.555,153.937,185.462,221.863,254.823,275.432,282.315,284.610,283.237,283.533,281.371,283.582,283.911,
    72,06/07/18 00:29:47,51,  0.00,160.20,300.576, 78.896, 82.291, 82.210, 78.738,, 73.927, 70.382, 68.266, 62.471, 57.751, 53.858, 49.101,,, 47.063,, 44.222,, 43.696,, 44.204,209.944,228.855,249.490,267.998,279.492,283.624,284.667,285.273,285.301,284.735,285.086,283.875,285.658,286.403,
    73,06/07/18 00:30:11,41, 287.6980,  75.0900,1013.5780, 216.0700,1
    74,06/07/18 00:30:48,51,  0.00, 19.80,300.530, 88.065, 90.888, 90.978, 88.144,, 82.053, 78.427, 75.895, 69.918, 63.701, 60.512, 55.548,,, 52.591,, 49.855,, 48.477,, 49.774,219.879,238.058,256.408,272.062,280.967,284.708,284.511,285.349,285.628,285.154,285.494,284.327,285.279,285.790,
    75,06/07/18 00:31:07,51,  0.00, 90.00,300.533, 34.420, 35.251, 35.700, 34.453,, 32.103, 30.128, 29.516, 27.567, 24.720, 23.998, 21.191,,, 20.408,, 19.692,, 19.559,, 19.524,111.536,129.371,153.622,185.591,222.010,255.340,275.798,282.978,285.313,283.953,284.038,281.509,283.354,283.511,
    76,06/07/18 00:31:25,51,  0.00,160.20,300.541, 78.979, 82.148, 81.936, 79.367,, 73.453, 69.689, 67.776, 62.110, 56.773, 53.365, 49.054,,, 46.439,, 43.698,, 42.575,, 44.164,209.613,228.793,249.940,268.358,279.556,284.396,285.172,285.586,285.570,285.205,285.354,284.285,284.777,285.537,
    77,06/07/18 00:31:50,41, 287.7800,  74.9400,1013.3220, 215.8300,1
    78,06/07/18 00:32:27,51,  0.00, 19.80,300.476, 88.199, 91.030, 90.721, 87.649,, 81.253, 78.444, 76.078, 69.953, 63.920, 60.032, 55.769,,, 52.666,, 49.471,, 48.836,, 49.598,220.033,237.732,256.622,272.110,281.369,284.371,285.115,284.979,285.509,284.471,285.623,283.680,284.975,285.395,
    79,06/07/18 00:32:45,51,  0.00, 90.00,300.481, 34.447, 35.403, 35.628, 34.466,, 31.372, 30.489, 29.317, 27.404, 24.865, 23.394, 22.029,,, 20.822,, 19.826,, 20.136,, 19.728,112.019,129.424,154.040,185.552,222.500,254.957,275.932,283.005,284.436,282.643,284.011,280.584,283.095,283.487,
    80,06/07/18 00:33:04,51,  0.00,160.20,300.466, 78.947, 82.047, 81.623, 78.587,, 72.818, 70.057, 67.709, 62.392, 57.324, 53.545, 49.315,,, 46.561,, 43.983,, 43.490,, 44.695,209.821,228.452,249.899,268.079,280.312,284.115,285.336,285.331,285.658,284.271,285.445,283.342,284.968,285.738,
    81,06/07/18 00:33:28,41, 287.7260,  75.9700,1013.7040, 220.7400,1
    82,06/07/18 00:34:05,51,  0.00, 19.80,300.425, 87.165, 90.534, 90.762, 87.399,, 81.990, 77.824, 76.025, 69.493, 63.861, 59.795, 55.130,,, 52.693,, 49.407,, 48.834,, 49.504,219.762,237.740,256.900,272.629,281.080,284.365,284.779,285.166,285.357,284.508,285.655,284.290,286.036,285.552,
    83,06/07/18 00:34:24,51,  0.00, 90.00,300.419, 34.349, 35.504, 35.843, 35.052,, 32.412, 30.411, 29.903, 27.561, 25.059, 23.932, 21.593,,, 21.050,, 19.627,, 20.197,, 19.681,111.884,129.685,154.265,186.348,222.303,254.824,276.055,282.987,284.284,282.737,283.908,281.225,283.292,283.286,
    84,06/07/18 00:34:43,51,  0.00,160.20,300.410, 78.781, 81.940, 82.031, 78.879,, 73.759, 69.529, 67.861, 62.089, 56.824, 52.957, 49.545,,, 46.828,, 43.741,, 43.384,, 43.863,209.766,229.188,249.892,268.692,279.714,284.028,285.492,285.079,285.148,284.196,285.157,284.000,285.307,285.219,
    85,06/07/18 00:35:07,41, 287.6980,  75.4700,1013.4160, 215.8900,1
    86,06/07/18 00:35:44,51,  0.00, 19.80,300.375, 87.644, 90.477, 90.723, 87.510,, 82.212, 78.725, 76.033, 69.760, 63.685, 60.076, 55.290,,, 52.091,, 49.373,, 48.272,, 50.098,220.221,237.790,256.423,271.961,280.938,284.237,284.474,284.952,285.512,284.514,285.599,284.122,285.692,285.612,
    87,06/07/18 00:36:03,51,  0.00, 90.00,300.362, 34.642, 35.775, 35.782, 35.140,, 32.292, 30.744, 29.777, 27.558, 25.197, 24.122, 21.882,,, 20.807,, 19.651,, 19.870,, 20.291,111.922,129.540,154.168,185.662,222.374,254.941,275.462,282.880,284.729,282.709,284.094,281.073,283.699,283.484,
    88,06/07/18 00:36:21,51,  0.00,160.20,300.382, 79.283, 82.756, 82.042, 79.598,, 74.358, 70.417, 68.212, 62.518, 57.514, 53.527, 49.500,,, 46.735,, 43.680,, 43.025,, 44.803,209.746,228.708,249.926,268.557,279.489,284.238,284.616,285.025,285.666,284.493,285.423,283.455,285.377,285.444,
    89,06/07/18 00:36:45,41, 287.5460,  75.8800,1013.5800, 216.5200,1
    90,06/07/18 00:37:22,51,  0.00, 19.80,300.300, 87.505, 90.626, 90.800, 87.739,, 81.593, 78.257, 75.762, 69.948, 63.367, 59.933, 55.089,,, 52.534,, 50.044,, 48.587,, 49.512,220.256,238.548,257.393,272.649,281.293,284.158,284.514,284.600,285.422,284.756,285.534,284.430,285.594,285.705,
    91,06/07/18 00:37:41,51,  0.00, 90.00,300.326, 34.512, 36.294, 36.097, 34.918,, 32.144, 30.423, 29.912, 27.790, 24.961, 23.936, 21.645,,, 20.738,, 19.800,, 19.836,, 20.254,111.907,129.831,154.621,186.107,222.273,254.884,275.716,282.094,284.702,283.102,283.876,281.122,283.921,284.528,
    92,06/07/18 00:38:00,51,  0.00,160.20,300.307, 78.682, 82.207, 81.858, 78.889,, 73.175, 69.819, 67.938, 62.151, 56.813, 53.450, 48.627,,, 46.931,, 43.914,, 43.060,, 44.316,209.952,229.156,250.463,268.937,280.143,284.260,285.062,285.085,285.438,284.285,285.273,284.269,285.545,286.226,
    93,06/07/18 00:38:24,41, 287.5460,  76.0500,1013.7400, 216.1400,1
    94,06/07/18 00:39:01,51,  0.00, 19.80,300.260, 87.021, 90.213, 90.340, 87.169,, 81.175, 77.787, 75.809, 69.638, 63.585, 60.457, 55.286,,, 52.636,, 49.483,, 48.372,, 49.549,219.570,237.635,256.603,272.254,280.864,284.300,284.411,284.618,285.557,284.233,285.160,284.135,285.530,285.607,
    95,06/07/18 00:39:20,51,  0.00, 90.00,300.257, 35.317, 36.136, 36.414, 35.243,, 32.451, 31.271, 30.206, 28.007, 25.972, 23.846, 21.766,,, 21.298,, 19.808,, 20.150,, 20.541,111.763,129.468,154.217,186.023,222.277,254.899,275.451,282.359,284.597,282.834,284.184,281.313,283.504,284.126,
    96,06/07/18 00:39:39,51,  0.00,160.20,300.255, 78.954, 82.038, 81.933, 79.321,, 73.564, 69.984, 68.170, 62.513, 57.079, 53.008, 48.987,,, 46.821,, 43.824,, 42.961,, 44.137,209.378,228.489,249.656,268.142,279.589,284.177,284.827,285.084,285.588,284.557,285.497,283.888,285.666,286.159,
    97,06/07/18 00:40:03,41, 287.4480,  76.4700,1013.6620, 216.7000,1
    98,06/07/18 00:40:40,51,  0.00, 19.80,300.202, 86.816, 90.438, 89.393, 87.061,, 81.197, 77.631, 75.396, 68.872, 63.353, 59.791, 55.122,,, 52.471,, 49.362,, 48.105,, 49.449,220.339,238.025,256.969,272.656,281.411,284.487,284.854,285.167,285.593,284.041,285.011,284.079,285.391,285.961,